Regional Weather Roundup
Issued by NWS Albany, NY

Home | Current Version | Previous Version | Text Only | Print | Product List | Glossary On
Versions: 1 2 3 4 5 6 7 8 9 10 11 12 13 14 15 16 17 18 19 20 21 22 23 24 25 26 27 28 29 30 31 32 33 34 35 36 37 38 39 40 41 42 43 44 45 46 47 48 49 50
000
ASUS41 KALY 290410
RWRALY

NEW YORK STATE HOURLY WEATHER ROUNDUP
NATIONAL WEATHER SERVICE ALBANY NY
1200 AM EDT FRI MAY 29 2015

NOTE: "FAIR" INDICATES FEW OR NO CLOUDS BELOW 12,000 FEET WITH NO
SIGNIFICANT WEATHER AND/OR NO OBSTRUCTIONS TO VISIBILITY.

NYZ032-033-038>043-046>054-057>066-NYZ062>081-290500-
EAST


CITY           SKY/WX    TMP DP  RH WIND       PRES   REMARKS
ALBANY         PTCLDY    62  53  72 NW3       30.28R
GLENS FALLS    CLEAR     60  53  77 SE3       30.27R
POUGHKEEPSIE   CLEAR     63  54  72 CALM      30.25S
NEWBURGH       CLEAR     64  57  77 VRB6      30.27S
MONTGOMERY     CLEAR     59  55  87 CALM      30.26R
WHITE PLAINS   PTCLDY    67  54  63 N8        30.25R
ISLIP          MOCLDY    68  58  70 N13       30.22R
NEW YORK CITY  PTCLDY    70  56  61 NE8       30.23R
CENTRAL PARK   PTCLDY    74  55  51 NE10G16   30.27R
$$

NYZ005>009-017-018-044>046-055-056-290500-
CENTRAL


CITY           SKY/WX    TMP DP  RH WIND       PRES   REMARKS
FULTON         CLEAR     58  54  86 CALM      30.28S
SYRACUSE       CLEAR     58  55  90 E5        30.28S
ROME           CLEAR     54  52  93 SE3       30.30S
ELMIRA         CLEAR     54  53  97 CALM      30.30R
BINGHAMTON     CLEAR     61  51  70 CALM      30.31S
MONTICELLO     CLEAR     55  52  88 CALM      30.32R
$$

NYZ026>034-041>043-290500-
NORTH


CITY           SKY/WX    TMP DP  RH WIND       PRES   REMARKS
WATERTOWN      CLEAR     53  51  93 SE3       30.27S
FORT DRUM      NOT AVBL
MASSENA        CLEAR     57  52  83 NE5       30.29S
SARANAC LAKE   FOG       45  44  97 CALM      30.31R VSB 1/2
PLATTSBURGH    PTCLDY    61  56  83 CALM      30.27R
$$

NYZ001>004-010>016-019>021-290500-
WEST


CITY           SKY/WX    TMP DP  RH WIND       PRES   REMARKS
NIAGARA FALLS  PTCLDY    61  53  75 E3        30.27S
BUFFALO        PTCLDY    64  54  69 SE3       30.28R
DUNKIRK        CLEAR     54  53  97 CALM      30.27F
JAMESTOWN      CLEAR     63  48  59 E6        30.31S
WELLSVILLE     CLEAR     59  52  77 E3        30.35R
ROCHESTER      CLEAR     60  56  86 SW3       30.28S
PENN YAN       CLEAR     57  53  86 SW3       30.30R
$$

             KEY
       WCI = WIND CHILL INDEX
       VSB = VISIBILITY
       HX  = HEAT INDEX
$$


USA.gov is the U.S. government's official web portal to all federal, state and local government web resources and services.